Location: Hard
(49.9417°N, 12.0858°E)
Time: 17:54:52
(UTC+00:00)

STARLINK-1364 - Pass Details

Date: 07 June 2020
Orbit: 379 x 381 km, 53.0° (Epoch: 13 July)

Event Time Altitude Azimuth Distance (km) Brightness Sun altitude
Rises 01:29:36 0° 291° (WNW) 2,262 6.6 -11.0°
Reaches altitude 10° 01:31:40 10° 292° (WNW) 1,407 5.6 -10.8°
Maximum altitude 01:34:48 83° 19° (NNE) 391 2.9 -10.6°
Drops below altitude 10° 01:37:56 10° 109° (ESE) 1,400 5.9 -10.3°
Sets 01:39:59 0° 110° (ESE) 2,251 6.9 -10.1°
